Voltar ao catálogo

USA 60

AtivoMilitarLEO
NORAD 20682·PAYLOAD·🇺🇸 United States

Lançado Jun 8, 1990 de Cape Canaveral Space Force Station

Loading…

Próximas Passagens (próximas 24 horas)

TLE

AtualizadoSource: Space-Track

Época: Sep 14, 2026, 14:11 UTC

1 20682U 90050B   26257.59139880  .00003670  00000-0  24214-3 0  9999
2 20682  63.2960 324.8212 0871390  84.6752 285.2974 13.67138648116077

Acompanhe USA 60 em tempo real com AllMySat

Download on the App Store